Regional Weather Roundup
Issued by NWS Wakefield, VA

Home | Current Version | Previous Version | Graphics & Text | Print | Product List | Glossary On
Versions: 1 2 3 4 5 6 7 8 9 10 11 12 13 14 15 16 17 18 19 20 21 22 23 24 25 26 27 28 29 30 31 32 33 34 35 36 37 38 39 40 41 42 43 44 45 46 47 48 49 50
187
ASUS41 KAKQ 211415
RWRAKQ

REGIONAL WEATHER ROUNDUP
NATIONAL WEATHER SERVICE WAKEFIELD VA
1000 AM EDT FRI JUL 21 2017

Note: "fair" indicates few or no clouds below 12,000 feet with no
significant weather and/or obstructions to visibility. * = Denotes
station may not report precipitation (e.g., rain,snow,etc.),
thunder or fog.

VAZ042-051-052>054-056-211500-
NORTHERN VIRGINIA

CITY           SKY/WX    TMP DP  RH WIND       PRES   REMARKS
WASH NATIONAL  MOSUNNY   89  72  56 NW9       29.97F HX  96
DULLES         PTSUNNY   86  71  60 NW12      29.98F
FORT BELVOIR   SUNNY     89  71  55 NW7       29.97F HX  95
QUANTICO       MOSUNNY   89  72  56 NE9       29.97F HX  96
FREDERICKSBRG* SUNNY     87  72  61 CALM      29.97S
STAFFORD*      SUNNY     86  72  64 W3        30.02S
WARRENTON      SUNNY     89  67  47 CALM      29.99S
CULPEPER*      SUNNY     87  71  57 CALM      29.99F
MANASSAS*      SUNNY     88  72  58 NW6       29.98F
LEESBURG*      SUNNY     88  73  62 W6        29.99F HX  96
WINCHESTER     PTSUNNY   84  70  61 W7G17     30.00F
FRONT ROYAL*   SUNNY     86  70  58 S3        30.00F
LURAY*         SUNNY     82  70  65 S3        30.02S
$$

VAZ048-049-060>072-079>083-211500-
CENTRAL AND SOUTH CENTRAL VIRGINIA

CITY           SKY/WX    TMP DP  RH WIND       PRES   REMARKS
RICHMOND       CLOUDY    89  72  56 NE5       29.98R HX  96
CHESTERFIELD*  FAIR      88  73  61 NE5       29.99S HX  95
PETERSBURG*    MOSUNNY   85  70  61 CALM      29.99S
HANOVER        MOSUNNY   88  70  55 CALM      29.99S
TAPPAHANNOCK*  MOSUNNY   90  59  34 N3        29.99R
QUINTON*       FAIR      83  76  77 CALM      29.97S
CHARLOTTSVILLE SUNNY     88  69  53 SW5       30.00S
GORDONSVILLE*  CLOUDY    87  71  58 CALM      29.99F
ORANGE*        CLOUDY    86  70  58 CALM      29.99S
LOUISA*        SUNNY     88  66  48 W3        30.00R
BUMPASS*       FAIR      87  72  61 W5        30.00R
FARMVILLE*     MOSUNNY   88  62  42 CALM      29.99S
CREWE*         FAIR      86  65  49 CALM      29.99F
FORT PICKETT*  FAIR     N/A N/A N/A NW5       30.00S
CHASE CITY*    FAIR      83  71  69 W3        30.01S
CLARKSVILLE*   FAIR      82  72  69 NW5       30.01S
SOUTH HILL*    CLOUDY    83  75  77 CALM      30.06S
LAWRENCEVILLE* FAIR      84  73  68 CALM      30.00R
EMPORIA*       MOSUNNY   82  73  74 SW3       30.00S
$$

VAZ088>098-211500-
SOUTHEAST VIRGINIA

CITY           SKY/WX    TMP DP  RH WIND       PRES   REMARKS
NORFOLK        CLOUDY    85  76  74 SW7       29.97S
VIRGINIA BEACH PTSUNNY   85  75  72 W6        29.97R
NORFOLK NAVAL  CLOUDY    85  75  72 VRB6      29.99R
WEST POINT*    CLOUDY    86  72  63 CALM      29.98S
SALUDA*        FAIR      83  76  78 CALM      29.97R
NEWPORT NEWS   MOSUNNY   84  74  71 W5        29.97S
LANGLEY AFB    CLOUDY    83  76  78 W5        29.97R
FORT EUSTIS    MOSUNNY   85  75  70 SW3       29.95S
WILLIAMSBURG*  CLOUDY    88  75  66 CALM      29.98S HX  97
HR EXEC AP*    FAIR      84  75  74 SW3       29.95S
FRANKLIN*      CLOUDY    84  75  74 CALM      29.99R
US460-WAKEFLD  PTSUNNY   84  76  76 CALM      29.98R
$$

VAZ020-022-025-037-045-211500-
WEST CENTRAL AND SOUTHWEST VIRGINIA

CITY           SKY/WX    TMP DP  RH WIND       PRES   REMARKS
STAUNTON*      CLOUDY    82  69  64 SW3       30.06F
WAYNESBORO*    SUNNY     83  70  64 SW6       30.07S
HOT SPRINGS VA CLOUDY    68  64  88 CALM      30.22S FOG
LYNCHBURG      SUNNY     85  69  58 NW7       30.04S
DANVILLE       MOSUNNY   84  73  69 VRB3      30.03S
SOUTH BOSTON*  FAIR      85  70  60 W3        30.02S
MARTINSVILLE   SUNNY     84  70  61 CALM      30.08S
ROANOKE        MOSUNNY   84  69  60 W7        30.08S
BLACKSBURG     CLOUDY    78  68  71 W5        30.15F
DUBLIN*        CLOUDY    82  64  53 W6        30.14F
MARION*        SUNNY     77  66  68 SW8       30.19S
HILLSVILLE*    SUNNY     77  63  61 CALM      30.16F
RICHLANDS*     FAIR      77  67  70 W3        30.18F
WISE*          PTSUNNY   81  68  65 NW3       30.19S
ABINGDON*      SUNNY     80  69  69 W5        30.15F
$$

MDZ021>025-VAZ099-100-211500-
SOUTHERN MARYLAND AND THE DELMARVA PENINSULA

CITY           SKY/WX    TMP DP  RH WIND       PRES   REMARKS
PATUXENT RIVER CLOUDY    86  74  67 NW9       29.96S
BAY BRIDGE APT SUNNY     86  73  66 N9        29.96F
LEONARDTOWN    CLOUDY   N/A N/A N/A NW6       29.99S
DOVER          SUNNY     85  82  90 NW9       29.94R HX 103
GEORGETOWN     SUNNY     87  72  60 NW8       29.96R
EASTON         MOSUNNY   88  72  58 N7        30.00S
CAMBRIDGE      SUNNY     86  73  66 NW10      29.96S
SALISBURY      SUNNY     88  73  62 NW10      29.95S HX  96
OCEAN CITY     CLOUDY    87  75  67 NW9       29.95R HX  96
WALLOPS ISLAND CLOUDY    88  76  67 NW6       29.96R HX  99
ACCOMACK*      CLOUDY    87  76  68 NW6       29.96S HX  98
$$

NCZ012>017-030>032-211500-
NORTH CENTRAL AND EASTERN NORTH CAROLINA

CITY           SKY/WX    TMP DP  RH WIND       PRES   REMARKS
ROANOKE RAPIDS FAIR      82  73  74 SW5       30.00R
RALEIGH        PTSUNNY   87  71  58 CALM      30.03R
ELIZABETH CITY MOSUNNY   86  78  77 W6        29.99S HX  98
AHOSKIE*         N/A     82  76  81 CALM      29.99S
EDENTON*       MOSUNNY   86  76  72 CALM      30.01R HX  97
CURRITUCK*     MOSUNNY   85  76  74 SW6       29.99S
KILL DEVIL HLS MOSUNNY   85  75  70 CALM      29.98S
MANTEO         MOSUNNY   85  76  74 SW6       30.00S
CAPE HATTERAS  MOSUNNY   83  76  79 SW8       30.02S
TARBORO*       NOT AVBL
GOLDSBORO      SUNNY     85  80  84 W7        30.00S HX 100
WASHINGTON     SUNNY     85  75  71 SW5       30.01S
GREENVILLE     SUNNY     86  77  74 W6        30.02S HX  97
NEW BERN       SUNNY     86  76  71 W6        30.03S HX  96
WILMINGTON     SUNNY     84  74  71 SW7       30.04S
$$

VAZ048-211500-
ELSEWHERE

CITY           SKY/WX    TMP DP  RH WIND       PRES   REMARKS
HARRISBURG PA  MOSUNNY   84  71  65 W6        29.96S
BALTIMORE      MOSUNNY   88  71  57 NW8       29.96S
ANNAPOLIS      SUNNY     85  73  67 N6        29.96S
ANDREWS AFB    SUNNY     88  69  53 N7        29.97F
PHILADELPHIA   PTSUNNY   85  69  58 N7        29.95S
HENDERSON NC   SUNNY     82  69  65 CALM      30.02S
GREENSBORO     PTSUNNY   87  68  52 N5        30.05S
ROCKY MOUNT    SUNNY     85  75  72 SW5       30.01S
$$

VAZ100-211500-
MARINE

STATION/POSITION TIME  TEMP    WIND        PRES    WAVE   SWELL
                       AIR SEA DIR/SP/G            HT/PER HT/PER
                 (UTC) (F)     (DEG/KT/KT) (MB)    (FT/S) (FT/S)
BRANDYWINE LGT   1342   80     340/ 12/ 12 1014.4R
CAPE MAY NJ      1348   84 74  330/  4/  8 1013.6R
LEWES DE         1348   80 73  330/  7/ 10 1013.9R
15NM E FENWICK I 1350   75 75  230/  4/  6 1014.3R   2/ 6   2/ 6
OCEAN-CITY-INLET 1348   83 68  350/  7/ 10 1014.4R
WACHAPREAGUE VA  1348   87 83  250/  3/  4 1014.4R
THOMAS POINT MD  1400   83 83  360/  5/  6   N/A
GOOSES REEF MD   1400   85 84  360/ 12/ 14 1015.3    1/ 2
COVE POINT MD    1348   83     350/ 12/ 13 1015.3R
SOLOMONS ISLAND  1348   85 84  350/  6/  8   N/A
BISHOPS HEAD MD  1348   85 84  320/  8/ 11 1014.7R
PINEY POINT MD   1342          330/  8/  9   N/A
POTOMAC MD       1400   84 85  320/  8/ 10 1013.8    1
CAMBRIDGE MD     1348   87 87              1015.3R
LEWISETTA VA     1348   85 85  340/  8/ 11 1014.6R
RAPPAHANNOCK LGT 1342          270/  7/  7 1015.3R
STINGRAY PT      1400   83 84  300/  6/  8 1015.2    1
YORK RVR RNG VA  1348   83     290/  5/  5 1015.1R
YORKTOWN VA      1348   82 83  320/  5/  6 1014.5R
JAMESTOWN VA     1400      86  250/  2/  4   N/A     0
DOMINION TERM VA 1348   82     250/  5/  6 1015.2R
KIPTOPEKE VA     1348      79  280/  8/  8   N/A
CHES BAY BRIDGE  1348   81 77  250/  8/  9 1014.8R
CAPE HENRY VA    1348   83     230/  6/ 10   N/A
WILLOUBY STN VA  1348   80     250/  7/  8 1015.0R
S CRANEY ISL VA  1348   83     210/  3/  5 1014.8R
CAPE HENRY BUOY  1330      73                N/A     2/14   2/14
1ST LANDING BUOY 1400   81 80              1014.9    1/ 3
64NM E OF VA BCH 1350   80 80  230/ 10/ 12 1015.8R   2/11   2/11
DUCK PIER NC     1348   82 58  250/  8/ 11 1015.1R
44100 DUCK FRF   1305      76                N/A     2/13   2/13
44056 DUCK FRF   1400      63                N/A     2/14   2/14
OREGON INLET NC  1342   82 82  210/  8/  9 1015.7S
HATTERAS NC      1348   81 79  220/  7/ 11 1016.5R
DIAMOND SHLS NC  1350   82 84  240/ 10/ 12 1016.8R   3/11   2/11
CAPE LOOKOUT NC  1400   83     250/  8/ 10 1016.7S
$$




USA.gov is the U.S. government's official web portal to all federal, state and local government web resources and services.